SP9KB-13 Weather Reports


time (UTC)temp
C
wind
direction
speed
KPH
gust
KPH
rain 1hr
cm
rain 24hr
cm
rain mn
cm
humidity
%
barometer
mb
20260506100357 22 224 1.6 3.2 0.00 0.00 0.00 48 991.3
20260506095856 21 225 9.7 11.3 0.00 0.00 0.00 48 991.3
20260506095356 21 316 4.8 8.0 0.00 0.00 0.00 48 991.2
20260506094855 21 229 6.4 9.7 0.00 0.00 0.00 49 991.3
20260506094355 21 266 4.8 6.4 0.00 0.00 0.00 50 991.2
20260506093854 21 182 3.2 6.4 0.00 0.00 0.00 51 991.1
20260506093353 20 218 6.4 14.5 0.00 0.00 0.00 52 991.3
20260506092853 20 157 4.8 9.7 0.00 0.00 0.00 51 991.3
20260506092352 20 238 6.4 8.0 0.00 0.00 0.00 52 991.3
20260506091852 20 247 12.9 17.7 0.00 0.00 0.00 51 991.5
20260506091351 20 253 4.8 8.0 0.00 0.00 0.00 51 991.6
20260506090851 20 176 6.4 9.7 0.00 0.00 0.00 52 991.5
20260506090350 20 237 4.8 9.7 0.00 0.00 0.00 52 991.4
20260506085849 20 212 4.8 6.4 0.00 0.00 0.00 51 991.2
20260506085349 20 259 4.8 4.8 0.00 0.00 0.00 50 991.1
20260506084849 20 194 8.0 14.5 0.00 0.00 0.00 51 991.3
20260506084348 20 122 4.8 6.4 0.00 0.00 0.00 51 991.1
20260506083847 20 202 3.2 4.8 0.00 0.00 0.00 50 991.1
20260506083347 20 245 9.7 14.5 0.00 0.00 0.00 50 990.9
20260506082846 20 226 3.2 4.8 0.00 0.00 0.00 50 990.9
20260506082346 18 257 3.2 4.8 0.00 0.00 0.00 52 990.9
20260506081845 20 246 4.8 12.9 0.00 0.00 0.00 49 990.8
20260506081344 20 147 0.0 1.6 0.00 0.00 0.00 49 990.8
20260506080844 20 217 4.8 8.0 0.00 0.00 0.00 49 991.1
20260506080343 20 137 3.2 3.2 0.00 0.00 0.00 48 990.9
20260506073340 20 229 6.4 9.7 0.00 0.00 0.00 48 991.0
20260506072839 19 223 1.6 1.6 0.00 0.00 0.00 48 990.9
20260506072339 19 178 6.4 11.3 0.00 0.00 0.00 46 990.9
20260506071838 19 223 3.2 4.8 0.00 0.00 0.00 48 991.2
20260506071338 19 153 1.6 3.2 0.00 0.00 0.00 48 991.0
20260506070837 18 217 3.2 4.8 0.00 0.00 0.00 49 991.1
20260506070336 17 211 1.6 3.2 0.00 0.00 0.00 51 991.2
20260506062332 16 224 4.8 6.4 0.00 0.00 0.00 55 990.8
20260506061831 16 222 8.0 8.0 0.00 0.00 0.00 54 990.9
20260506061331 16 194 3.2 3.2 0.00 0.00 0.00 54 990.8
20260506060830 16 231 4.8 6.4 0.00 0.00 0.00 54 990.8
20260506060330 16 196 8.0 12.9 0.00 0.00 0.00 53 990.9
20260506051325 15 212 8.0 9.7 0.00 0.00 0.00 53 990.9
20260506050824 15 202 3.2 6.4 0.00 0.00 0.00 54 990.7
20260506050323 15 235 6.4 9.7 0.00 0.00 0.00 55 990.7
20260506044822 14 227 6.4 8.0 0.00 0.00 0.00 55 990.6
20260506044321 14 234 4.8 6.4 0.00 0.00 0.00 54 990.6
20260506043821 15 236 11.3 16.1 0.00 0.00 0.00 53 990.6
20260506043320 15 223 3.2 6.4 0.00 0.00 0.00 53 990.7
20260506042820 15 152 0.0 1.6 0.00 0.00 0.00 55 990.6
20260506042319 15 212 4.8 6.4 0.00 0.00 0.00 53 990.6
20260506041819 14 208 1.6 3.2 0.00 0.00 0.00 55 990.6
20260506041318 13 217 1.6 3.2 0.00 0.00 0.00 57 990.7
20260506040817 13 243 6.4 8.0 0.00 0.00 0.00 58 990.7
20260506040317 13 229 3.2 3.2 0.00 0.00 0.00 57 990.6
20260506035816 12 226 4.8 4.8 0.00 0.00 0.00 59 990.5
20260506035316 12 224 3.2 3.2 0.00 0.00 0.00 60 990.7
20260506034815 11 228 0.0 0.0 0.00 0.00 0.00 64 990.6
20260506034315 10 215 0.0 0.0 0.00 0.00 0.00 69 990.6
20260506033814 10 215 0.0 0.0 0.00 0.00 0.00 72 990.7
20260506033314 9 215 0.0 0.0 0.00 0.00 0.00 73 990.7
20260506032813 9 214 1.6 1.6 0.00 0.00 0.00 73 990.8
20260506032313 10 214 0.0 0.0 0.00 0.00 0.00 70 990.7
20260506031812 10 214 0.0 0.0 0.00 0.00 0.00 66 990.9
20260506031311 10 227 1.6 1.6 0.00 0.00 0.00 70 990.8
20260506030811 11 229 0.0 1.6 0.00 0.00 0.00 65 990.9
20260506030310 10 224 1.6 1.6 0.00 0.00 0.00 69 990.8
20260506025810 10 119 0.0 0.0 0.00 0.00 0.00 64 990.8
20260506025309 11 251 0.0 0.0 0.00 0.00 0.00 65 991.0
20260506024809 11 125 3.2 3.2 0.00 0.00 0.00 63 990.7
20260506024308 11 251 0.0 1.6 0.00 0.00 0.00 62 990.9
20260506023808 11 289 3.2 3.2 0.00 0.00 0.00 63 990.8
20260506023307 12 214 0.0 0.0 0.00 0.00 0.00 62 990.8
20260506022807 12 214 0.0 0.0 0.00 0.00 0.00 57 990.8
20260506022306 13 239 0.0 0.0 0.00 0.00 0.00 55 990.6
20260506021805 13 174 1.6 3.2 0.00 0.00 0.00 54 990.7
20260506021305 13 227 4.8 9.7 0.00 0.00 0.00 53 990.6
20260506020804 13 234 1.6 4.8 0.00 0.00 0.00 53 990.7
20260506020304 13 232 3.2 6.4 0.00 0.00 0.00 53 990.7
20260506015803 13 244 6.4 8.0 0.00 0.00 0.00 52 990.7
20260506015305 13 236 3.2 6.4 0.00 0.00 0.00 52 990.7
20260506014802 13 231 4.8 9.7 0.00 0.00 0.00 52 990.7
20260506014302 13 195 4.8 4.8 0.00 0.00 0.00 52 990.7
20260506013801 13 221 3.2 4.8 0.00 0.00 0.00 51 990.7
20260506012800 13 219 6.4 8.0 0.00 0.00 0.00 51 991.0
20260506012300 13 214 3.2 4.8 0.00 0.00 0.00 52 990.9
20260506011759 13 214 3.2 3.2 0.00 0.00 0.00 52 990.8
20260506011259 13 205 4.8 4.8 0.00 0.00 0.00 51 990.8
20260506010758 12 239 3.2 4.8 0.00 0.00 0.00 55 990.8
20260506010258 12 224 0.0 0.0 0.00 0.00 0.00 60 990.8
20260506005757 12 220 0.0 0.0 0.00 0.00 0.00 59 990.8
20260506005257 12 220 0.0 1.6 0.00 0.00 0.00 58 990.8
20260506004756 12 220 0.0 1.6 0.00 0.00 0.00 57 990.7
20260506004256 13 219 0.0 0.0 0.00 0.00 0.00 56 990.6
20260506003755 13 219 1.6 1.6 0.00 0.00 0.00 53 990.6
20260506003255 14 227 1.6 1.6 0.00 0.00 0.00 49 990.7
20260506002754 13 221 3.2 4.8 0.00 0.00 0.00 50 990.7
20260506002253 14 225 0.0 0.0 0.00 0.00 0.00 51 990.7
20260506001753 14 233 3.2 4.8 0.00 0.00 0.00 49 990.5
20260506001253 14 247 3.2 4.8 0.00 0.00 0.00 51 990.5
20260506000752 13 207 3.2 4.8 0.00 0.00 0.00 53 990.4
20260506000252 13 235 1.6 1.6 0.00 0.00 0.00 54 990.5
20260505235751 13 238 1.6 1.6 0.00 0.00 0.00 55 990.5
20260505235251 13 224 1.6 3.2 0.00 0.00 0.00 55 990.5
20260505234750 13 257 3.2 3.2 0.00 0.00 0.00 53 990.6
20260505234250 12 229 1.6 3.2 0.00 0.00 0.00 56 990.6
20260505233749 12 234 1.6 3.2 0.00 0.00 0.00 58 990.6
20260505233249 11 233 1.6 1.6 0.00 0.00 0.00 63 990.7
20260505232748 10 229 1.6 1.6 0.00 0.00 0.00 65 990.7
20260505232248 10 229 0.0 1.6 0.00 0.00 0.00 69 990.7
20260505231747 10 228 0.0 0.0 0.00 0.00 0.00 70 990.8
20260505231246 10 228 1.6 1.6 0.00 0.00 0.00 67 991.0
20260505230746 9 228 1.6 1.6 0.00 0.00 0.00 71 990.9
20260505230246 9 228 1.6 1.6 0.00 0.00 0.00 73 990.9
20260505225745 9 228 1.6 3.2 0.00 0.00 0.00 73 990.9
20260505225244 9 228 3.2 3.2 0.00 0.00 0.00 73 991.0
20260505224744 8 228 3.2 3.2 0.00 0.00 0.00 74 991.2
20260505224243 8 227 3.2 3.2 0.00 0.00 0.00 74 991.1
20260505223743 8 230 3.2 4.8 0.00 0.00 0.00 75 991.1
20260505223242 8 227 1.6 3.2 0.00 0.00 0.00 76 991.1
20260505222742 7 227 3.2 3.2 0.00 0.00 0.00 80 991.2
20260505222241 7 227 1.6 3.2 0.00 0.00 0.00 80 991.2
20260505221741 7 227 0.0 0.0 0.00 0.00 0.00 80 991.2
20260505221240 7 227 0.0 0.0 0.00 0.00 0.00 80 991.3
20260505220740 7 227 0.0 0.0 0.00 0.00 0.00 81 991.1
20260505220239 7 227 0.0 0.0 0.00 0.00 0.00 81 991.4
20260505215739 7 227 0.0 0.0 0.00 0.00 0.00 81 991.3
20260505215238 7 227 0.0 0.0 0.00 0.00 0.00 81 991.6
20260505214738 7 227 0.0 0.0 0.00 0.00 0.00 81 991.5
20260505214237 7 227 1.6 1.6 0.00 0.00 0.00 81 991.6
20260505213737 7 227 0.0 0.0 0.00 0.00 0.00 80 991.6
20260505213236 7 227 0.0 0.0 0.00 0.00 0.00 79 991.6
20260505212735 7 227 1.6 1.6 0.00 0.00 0.00 80 991.6
20260505212235 7 227 0.0 0.0 0.00 0.00 0.00 80 991.6
20260505211734 7 226 0.0 0.0 0.00 0.00 0.00 80 991.7
20260505211234 8 226 0.0 0.0 0.00 0.00 0.00 80 991.7
20260505210733 8 226 0.0 0.0 0.00 0.00 0.00 80 991.7
20260505210233 8 226 0.0 0.0 0.00 0.00 0.00 79 991.7
20260505205732 8 226 0.0 0.0 0.00 0.00 0.00 77 991.7
20260505205231 8 226 1.6 1.6 0.00 0.00 0.00 75 991.8
20260505204731 8 226 0.0 0.0 0.00 0.00 0.00 77 991.7
20260505204230 10 226 0.0 0.0 0.00 0.00 0.00 73 991.6
20260505203730 10 233 3.2 3.2 0.00 0.00 0.00 70 991.7
20260505203229 10 228 1.6 3.2 0.00 0.00 0.00 71 991.7
20260505202729 10 232 4.8 4.8 0.00 0.00 0.00 70 991.6
20260505202228 10 235 3.2 3.2 0.00 0.00 0.00 68 991.6
20260505201727 10 225 1.6 3.2 0.00 0.00 0.00 68 991.6
20260505201227 11 229 3.2 3.2 0.00 0.00 0.00 67 991.6
20260505200726 11 230 1.6 3.2 0.00 0.00 0.00 66 991.8
20260505200225 11 233 3.2 3.2 0.00 0.00 0.00 67 991.5
20260505195725 11 232 3.2 3.2 0.00 0.00 0.00 67 991.7
20260505195224 11 233 1.6 1.6 0.00 0.00 0.00 64 991.5
20260505194724 12 224 3.2 3.2 0.00 0.00 0.00 65 991.6
20260505194223 11 225 1.6 1.6 0.00 0.00 0.00 65 991.5
20260505193723 12 231 3.2 3.2 0.00 0.00 0.00 63 991.6
20260505193222 12 229 1.6 1.6 0.00 0.00 0.00 63 991.5
20260505192722 12 228 1.6 3.2 0.00 0.00 0.00 64 991.6
20260505192221 12 219 1.6 3.2 0.00 0.00 0.00 60 991.7
20260505191721 12 228 0.0 0.0 0.00 0.00 0.00 63 991.4
20260505191220 13 228 1.6 3.2 0.00 0.00 0.00 60 991.4
20260505190720 13 233 1.6 3.2 0.00 0.00 0.00 60 991.5
20260505190219 13 225 1.6 1.6 0.00 0.00 0.00 59 991.5
20260505185719 13 228 1.6 1.6 0.00 0.00 0.00 58 991.4
20260505185218 14 218 1.6 1.6 0.00 0.00 0.00 58 991.4
20260505184718 14 218 1.6 1.6 0.00 0.00 0.00 54 991.5
20260505184217 15 226 0.0 1.6 0.00 0.00 0.00 53 991.1
20260505183716 16 226 1.6 3.2 0.00 0.00 0.00 49 991.4
20260505183216 16 219 0.0 0.0 0.00 0.00 0.00 49 991.3
20260505182715 16 218 0.0 1.6 0.00 0.00 0.00 46 991.3
20260505182215 16 218 0.0 1.6 0.00 0.00 0.00 44 991.3
20260505181714 16 217 0.0 0.0 0.00 0.00 0.00 43 991.1
20260505181214 17 217 0.0 1.6 0.00 0.00 0.00 46 991.2
20260505180713 18 205 1.6 1.6 0.00 0.00 0.00 39 991.0
20260505180213 18 217 0.0 0.0 0.00 0.00 0.00 39 991.1
20260505175712 18 228 1.6 3.2 0.00 0.00 0.00 39 991.1
20260505175215 19 225 0.0 0.0 0.00 0.00 0.00 37 991.1
20260505174711 19 209 0.0 0.0 0.00 0.00 0.00 42 990.8
20260505174210 19 223 0.0 0.0 0.00 0.00 0.00 38 991.0
20260505173708 20 222 0.0 0.0 0.00 0.00 0.00 37 991.2
20260505173207 20 240 1.6 1.6 0.00 0.00 0.00 36 991.1
20260505172707 20 212 1.6 1.6 0.00 0.00 0.00 35 991.1
20260505172206 20 199 0.0 0.0 0.00 0.00 0.00 37 991.0
20260505171705 20 225 1.6 1.6 0.00 0.00 0.00 36 991.0
20260505171205 21 228 0.0 1.6 0.00 0.00 0.00 34 991.2
20260505170704 21 187 1.6 1.6 0.00 0.00 0.00 34 991.1
20260505170203 21 217 0.0 1.6 0.00 0.00 0.00 33 991.1
20260505165703 21 228 4.8 6.4 0.00 0.00 0.00 32 991.0
20260505165202 21 226 4.8 4.8 0.00 0.00 0.00 32 991.0
20260505164702 22 204 1.6 3.2 0.00 0.00 0.00 33 990.9
20260505164201 22 230 4.8 6.4 0.00 0.00 0.00 31 991.1
20260505163701 22 212 3.2 4.8 0.00 0.00 0.00 32 990.9
20260505163200 22 230 6.4 8.0 0.00 0.00 0.00 31 991.2
20260505162659 22 235 1.6 3.2 0.00 0.00 0.00 32 991.2
20260505162159 22 201 1.6 3.2 0.00 0.00 0.00 31 991.1
20260505161658 22 214 3.2 3.2 0.00 0.00 0.00 31 991.2
20260505161158 22 213 1.6 3.2 0.00 0.00 0.00 31 991.2
20260505160657 22 219 3.2 6.4 0.00 0.00 0.00 29 991.2
20260505160157 23 225 3.2 4.8 0.00 0.00 0.00 29 991.4
20260505153151 22 218 1.6 4.8 0.00 0.00 0.00 30 991.2
20260505152650 22 159 0.0 0.0 0.00 0.00 0.00 28 991.4
20260505152150 22 219 3.2 4.8 0.00 0.00 0.00 29 991.4
20260505151649 22 243 9.7 14.5 0.00 0.00 0.00 28 991.4
20260505151149 22 172 1.6 1.6 0.00 0.00 0.00 28 991.7
20260505150648 23 95 1.6 3.2 0.00 0.00 0.00 28 991.5
20260505150147 23 102 3.2 4.8 0.00 0.00 0.00 28 991.7
20260505140641 25 225 8.0 9.7 0.00 0.00 0.00 23 992.1
20260505140140 26 242 3.2 4.8 0.00 0.00 0.00 24 991.9
20260505130133 26 219 9.7 12.9 0.00 0.00 0.00 24 992.2
20260505124631 26 215 8.0 9.7 0.00 0.00 0.00 23 992.3
20260505124130 26 239 4.8 8.0 0.00 0.00 0.00 25 992.4
20260505123630 25 230 6.4 6.4 0.00 0.00 0.00 26 992.4
20260505123129 25 214 1.6 1.6 0.00 0.00 0.00 26 992.4
20260505122629 25 83 1.6 3.2 0.00 0.00 0.00 26 992.6
20260505122128 26 188 4.8 8.0 0.00 0.00 0.00 25 992.7
20260505121627 26 42 3.2 8.0 0.00 0.00 0.00 28 992.6
20260505121127 25 109 3.2 8.0 0.00 0.00 0.00 28 992.6
20260505120626 25 223 9.7 12.9 0.00 0.00 0.00 28 992.7
20260505120126 25 258 3.2 3.2 0.00 0.00 0.00 30 992.7
20260505115625 25 188 19.3 27.4 0.00 0.00 0.00 30 992.7
20260505115124 25 223 4.8 8.0 0.00 0.00 0.00 31 992.7
20260505114624 25 109 3.2 11.3 0.00 0.00 0.00 32 992.7
20260505114123 25 228 3.2 6.4 0.00 0.00 0.00 32 993.0
20260505113623 24 206 9.7 14.5 0.00 0.00 0.00 32 992.9
20260505113122 24 181 4.8 9.7 0.00 0.00 0.00 32 993.0
20260505112622 23 269 3.2 6.4 0.00 0.00 0.00 33 992.9
20260505112121 24 249 6.4 11.3 0.00 0.00 0.00 35 992.8
20260505111620 23 229 1.6 4.8 0.00 0.00 0.00 33 993.0
20260505111120 24 118 3.2 3.2 0.00 0.00 0.00 36 993.2
20260505110619 24 187 4.8 8.0 0.00 0.00 0.00 33 993.3
20260505110119 23 215 3.2 3.2 0.00 0.00 0.00 34 993.5
20260505102114 22 243 4.8 8.0 0.00 0.00 0.00 34 993.8
20260505101613 22 271 3.2 6.4 0.00 0.00 0.00 36 993.7
20260505101113 22 122 1.6 3.2 0.00 0.00 0.00 35 994.1